SES-10

Last updated on Wed Sep 09 2026 00:03:01 GMT+0000 (Coordinated Universal Time)

1 42432U 17017A 26251.50315554 -.00000294 00000+0 00000+0 0 9999 2 42432 0.0158 66.4923 0002629 109.6432 285.6697 1.00269130 34591
UTC large
Height (km)
Speed (km/s)
/
Latitude / Longitude
Inclination (degrees)
Orbital Period (minutes)
Azimuth
Elevation
Range (km)
Doppler Factor

Next 0 passes for location: London (51.5072 / 0.1276)

No passes found over London.
SES-10